time_stamp(utc),avg(mph),gust(mph),direction(deg),12m_air_temp(f),sonic_u(cm/s),sonic_v(cm/s),sonic_w(cm/s),pressure,2m_air_temp(f),pyranometer(W/m^2)
"2016-07-02 00:01:24+00",9.7,10.7,,71.1,-385,193,26,1011.24,68.8,0
"2016-07-02 00:06:24+00",9.6,10.6,,71.5,-412,74,21,1011.22,69.2,0
"2016-07-02 00:11:24+00",14.4,16.4,,72.1,-638,68,32,1011.35,69.2,0
"2016-07-02 00:16:24+00",10.9,11.9,,71.8,-469,132,39,1011.24,69.5,0
"2016-07-02 00:21:24+00",8.1,9.1,,71.7,-338,134,22,1011.12,69.5,0
"2016-07-02 00:26:24+00",7.1,7.1,,71.6,-308,90,22,1011.08,69.8,0
"2016-07-02 00:31:24+00",6.6,7.6,,71.4,-278,103,13,1011.08,69.6,0
"2016-07-02 00:36:24+00",6.8,7.8,,71.2,-293,80,20,1011.02,69.6,0
"2016-07-02 00:41:24+00",4.8,4.8,,70.9,-204,43,15,1011.17,69.6,0
"2016-07-02 00:46:24+00",5.9,6.9,,70.7,-249,55,9,1011.17,69.7,0
"2016-07-02 00:51:24+00",4.5,5.5,,70.9,-193,5,7,1011.04,69.6,0
"2016-07-02 00:56:24+00",5.2,6.2,,70.8,-219,89,16,1010.99,69.6,0
"2016-07-02 01:01:24+00",5.2,6.2,,70.8,-229,30,13,1011.17,69.6,0
"2016-07-02 01:06:24+00",10.0,12.0,,70.7,-373,247,29,1011.38,69.8,0
"2016-07-02 01:11:24+00",7.1,8.1,,70.9,-280,136,15,1011.21,69.8,0
"2016-07-02 01:16:24+00",4.2,4.2,,71.2,-167,-37,3,1010.97,69.8,0
"2016-07-02 01:21:24+00",4.7,4.7,,71.2,-64,-185,-1,1010.95,69.8,0
"2016-07-02 01:26:24+00",5.4,6.4,,71.3,-237,48,19,1011.35,70,0
"2016-07-02 01:31:24+00",5.9,6.9,,71.3,-254,67,16,1011.27,70.2,0
"2016-07-02 01:36:24+00",5.7,5.7,,71.6,-233,89,12,1011.25,70.2,0
"2016-07-02 01:41:24+00",5.1,6.1,,71.9,-218,-10,5,1011.26,70.2,0
"2016-07-02 01:46:24+00",6.5,7.5,,72.2,-286,-7,7,1011.19,70.2,0
"2016-07-02 01:51:24+00",6.7,6.7,,72.6,-271,-68,6,1011.04,70.5,0
"2016-07-02 01:56:24+00",6.4,7.4,,72.6,-275,-135,9,1011.13,70.5,0
"2016-07-02 02:01:24+00",7.1,8.1,,72.1,-231,-201,8,1011.16,70.6,0
"2016-07-02 02:06:24+00",7.3,8.3,,71.8,-205,-252,13,1011.13,70.4,0
"2016-07-02 02:11:24+00",7.8,9.8,,71.5,-90,-322,-4,1011.05,70.1,0
"2016-07-02 02:16:24+00",8.1,9.1,,70.9,-103,-332,3,1010.98,69.9,0
"2016-07-02 02:21:24+00",8.4,9.4,,70.5,-145,-329,-8,1011.01,69.5,0
"2016-07-02 02:26:24+00",7.4,8.4,,70.3,-93,-306,-2,1011.09,69.3,0
"2016-07-02 02:31:24+00",8.9,9.9,,70.2,-103,-370,-7,1011.06,69.3,0
"2016-07-02 02:36:24+00",9.5,11.5,,70.3,-132,-370,2,1011.08,69.4,0
"2016-07-02 02:41:24+00",8.7,11.7,,70.3,-117,-348,4,1011.13,69.2,0
"2016-07-02 02:46:24+00",9.4,11.4,,70.3,-128,-395,3,1011.01,69.2,0
"2016-07-02 02:51:24+00",8.9,11.9,,70.6,-94,-365,-10,1011,69.3,0
"2016-07-02 02:56:24+00",8.6,11.6,,70.7,-92,-356,2,1010.85,69.5,0
"2016-07-02 03:01:24+00",8.9,10.9,,70.9,-123,-359,-1,1010.92,69.7,0
"2016-07-02 03:06:24+00",8.1,10.1,,70.9,-95,-338,1,1010.93,69.7,0
"2016-07-02 03:11:24+00",7.6,9.6,,71,-78,-315,-5,1010.81,69.9,0
"2016-07-02 03:16:24+00",6.8,7.8,,70.9,-96,-267,-9,1010.82,69.9,0
"2016-07-02 03:21:24+00",7.7,8.7,,70.9,-61,-314,-6,1010.7,70,0
"2016-07-02 03:26:24+00",7.4,9.4,,71.1,-73,-300,-10,1010.67,70.2,0
"2016-07-02 03:31:24+00",4.7,5.7,,71,-77,-181,-4,1010.63,70.2,0
"2016-07-02 03:36:24+00",5.5,7.5,,71.2,-15,-227,-8,1010.6,70.5,0
"2016-07-02 03:41:24+00",6.3,8.3,,71.4,-60,-257,-10,1010.64,70.9,0
"2016-07-02 03:46:24+00",6.9,8.9,,71.6,-61,-287,-6,1010.74,71.1,0
"2016-07-02 03:51:24+00",9.2,11.2,,71.6,-129,-368,-5,1010.95,71.2,0
"2016-07-02 03:56:24+00",8.8,9.8,,71.6,-151,-344,1,1010.84,71.1,0
"2016-07-02 04:01:24+00",8.2,11.2,,71.6,-108,-336,-10,1010.85,71,0
"2016-07-02 04:06:24+00",8.8,10.8,,71.6,-115,-354,-16,1010.8,71.1,0
"2016-07-02 04:11:24+00",9.1,12.1,,71.7,-90,-374,-3,1010.83,71.1,0
"2016-07-02 04:16:24+00",10.1,12.1,,71.8,-90,-418,-26,1010.78,71.1,0
"2016-07-02 04:21:24+00",10.7,12.7,,71.8,-164,-430,-1,1010.94,71,0
"2016-07-02 04:26:24+00",9.2,10.2,,72,-186,-355,1,1010.98,70.9,0
"2016-07-02 04:31:24+00",10.1,12.1,,72,-228,-379,-2,1010.99,70.9,0
"2016-07-02 04:36:24+00",10.0,11.0,,72.1,-241,-374,0,1011,70.9,0
"2016-07-02 04:41:24+00",9.0,11.0,,72.2,-269,-309,2,1010.89,70.8,0
"2016-07-02 04:46:24+00",8.9,9.9,,72.4,-282,-284,8,1010.8,70.8,0
"2016-07-02 04:51:24+00",9.8,10.8,,72.4,-314,-306,4,1010.84,70.7,0
"2016-07-02 04:56:24+00",9.7,10.7,,72.5,-313,-303,10,1010.83,70.8,0
"2016-07-02 05:01:24+00",9.7,10.7,,72.7,-333,-256,11,1011.13,70.8,0
"2016-07-02 05:06:24+00",9.5,10.5,,72.9,-349,-228,20,1011.18,70.7,0
"2016-07-02 05:11:24+00",8.6,9.6,,72.7,-277,-248,7,1011.08,70.6,0
"2016-07-02 05:16:24+00",10.4,12.4,,72.4,-316,-354,14,1010.98,70.5,0
"2016-07-02 05:21:24+00",11.9,13.9,,72.4,-368,-393,1,1011.11,70.6,0
"2016-07-02 05:26:24+00",13.1,17.1,,72.4,-433,-382,15,1011.08,70.7,0
"2016-07-02 05:31:24+00",13.2,15.2,,72.4,-440,-375,14,1011.12,70.7,0
"2016-07-02 05:36:24+00",11.9,13.9,,72.3,-397,-328,13,1011.19,70.7,0
"2016-07-02 05:41:24+00",9.8,10.8,,72.2,-319,-289,15,1011.16,70.8,0
"2016-07-02 05:46:24+00",9.8,10.8,,72.2,-310,-309,9,1011.1,70.7,0
"2016-07-02 05:51:24+00",8.1,9.1,,72,-271,-225,10,1011.16,70.7,0
"2016-07-02 05:56:24+00",9.6,11.6,,72,-322,-277,15,1011.14,70.6,0
"2016-07-02 06:01:24+00",10.0,11.0,,72.2,-350,-259,11,1011.04,70.6,0
"2016-07-02 06:06:24+00",9.7,10.7,,72.2,-366,-224,13,1010.93,70.6,0
"2016-07-02 06:11:24+00",8.6,9.6,,72.4,-333,-197,15,1010.82,70.6,0
"2016-07-02 06:16:24+00",9.8,10.8,,72.6,-395,-209,18,1010.9,70.6,0
"2016-07-02 06:21:24+00",10.8,11.8,,72.6,-412,-251,12,1010.89,70.6,0
"2016-07-02 06:26:24+00",11.2,12.2,,72.8,-451,-246,15,1010.88,70.7,0
"2016-07-02 06:31:24+00",11.1,13.1,,72.8,-490,-200,22,1010.85,70.7,0
"2016-07-02 06:36:24+00",10.8,11.8,,72.7,-472,-174,17,1010.99,70.8,0
"2016-07-02 06:41:24+00",11.5,13.5,,72.6,-493,-186,20,1011.04,70.8,0
"2016-07-02 06:46:24+00",11.1,12.1,,72.7,-482,-224,12,1011.1,70.8,0
"2016-07-02 06:51:24+00",11.5,12.5,,72.6,-490,-94,12,1011.3,70.9,0
"2016-07-02 06:56:24+00",11.2,13.2,,72.5,-484,-45,24,1011.27,70.9,0
"2016-07-02 07:01:24+00",10.7,12.7,,72.3,-449,-91,12,1011.19,70.9,0
"2016-07-02 07:06:24+00",9.9,11.9,,72,-416,-90,11,1011.13,70.9,0
"2016-07-02 07:11:24+00",9.8,10.8,,71.8,-425,-42,16,1011.19,70.8,0
"2016-07-02 07:16:24+00",9.4,10.4,,71.6,-413,18,16,1011.17,70.7,0
"2016-07-02 07:21:24+00",10.6,11.6,,71.6,-472,48,26,1011.08,70.7,0
"2016-07-02 07:26:24+00",11.0,13.0,,71.6,-489,71,31,1011.07,70.7,0
"2016-07-02 07:31:24+00",10.7,12.7,,71.6,-478,53,27,1011.14,70.7,0
"2016-07-02 07:36:24+00",10.0,11.0,,71.5,-441,66,33,1011.02,70.7,0
"2016-07-02 07:41:24+00",10.6,12.6,,71.5,-470,100,21,1010.99,70.6,0
"2016-07-02 07:46:24+00",9.5,10.5,,71.5,-408,99,30,1010.95,70.7,0
"2016-07-02 07:51:24+00",9.6,10.6,,71.4,-420,120,27,1011.07,70.6,0
"2016-07-02 07:56:24+00",10.5,13.5,,71.3,-439,155,25,1011.05,70.6,0
"2016-07-02 08:01:24+00",11.8,15.8,,71.4,-495,185,39,1011.05,70.5,0
"2016-07-02 08:06:24+00",11.7,12.7,,71.6,-499,158,38,1011.15,70.5,0
"2016-07-02 08:11:24+00",10.4,12.4,,71.4,-442,156,41,1011.08,70.6,0
"2016-07-02 08:16:24+00",13.0,14.0,,71.1,-547,214,28,1011.24,70.4,0
"2016-07-02 08:21:24+00",11.7,13.7,,71,-490,200,25,1011.27,70.3,0
"2016-07-02 08:26:24+00",11.8,12.8,,70.9,-505,189,40,1011.47,70.2,0
"2016-07-02 08:31:24+00",10.1,12.1,,70.8,-424,170,21,1011.46,70,0
"2016-07-02 08:36:24+00",9.7,10.7,,70.7,-396,182,37,1011.56,70,0
"2016-07-02 08:41:24+00",9.6,11.6,,70.7,-397,166,30,1011.63,69.9,0
"2016-07-02 08:46:24+00",10.2,11.2,,70.9,-386,252,33,1011.71,69.8,0
"2016-07-02 08:51:24+00",11.3,15.3,,71,-401,315,43,1011.79,69.7,0
"2016-07-02 08:56:24+00",13.5,15.5,,70.8,-491,357,28,1011.86,69.8,0
"2016-07-02 09:01:24+00",10.3,11.3,,70.4,-386,270,34,1012.04,69.6,0
"2016-07-02 09:06:24+00",10.0,13.0,,70.2,-354,273,29,1012.21,69.4,0
"2016-07-02 09:11:24+00",10.7,12.7,,70.2,-357,324,38,1012.23,69.3,0
"2016-07-02 09:16:24+00",11.3,13.3,,70,-373,341,37,1012.35,69.2,0
"2016-07-02 09:21:24+00",10.9,11.9,,69.7,-359,337,37,1012.42,69.1,0
"2016-07-02 09:26:24+00",10.4,13.4,,69.5,-314,333,32,1012.43,68.9,0
"2016-07-02 09:31:24+00",10.5,12.5,,69.7,-323,339,30,1012.51,68.7,0
"2016-07-02 09:36:24+00",10.0,13.0,,69.8,-262,353,29,1012.66,68.5,0
"2016-07-02 09:41:24+00",9.4,10.4,,70.1,-231,342,27,1012.69,68.4,0
"2016-07-02 09:46:24+00",9.0,10.0,,70.2,-252,305,21,1012.87,68.4,0
"2016-07-02 09:51:24+00",8.3,9.3,,70.2,-202,299,22,1012.85,68.3,0
"2016-07-02 09:56:24+00",10.1,11.1,,70.1,-238,369,19,1012.89,68.1,0
"2016-07-02 10:01:24+00",8.8,9.8,,69.9,-216,314,27,1013.03,68,0
"2016-07-02 10:06:24+00",8.3,9.3,,69.7,-220,296,20,1013.12,68.1,0
"2016-07-02 10:11:24+00",11.8,12.8,,69.6,-266,441,23,1013.21,68,0
"2016-07-02 10:16:24+00",12.1,13.1,,69.5,-270,460,21,1013.27,68.1,1.6
"2016-07-02 10:21:24+00",8.3,10.3,,69.4,-191,316,24,1013.32,68.2,4.9
"2016-07-02 10:26:24+00",10.5,12.5,,69.3,-247,390,32,1013.38,68.3,10.8
"2016-07-02 10:31:24+00",9.0,11.0,,69.1,-198,337,21,1013.52,68.5,20.3
"2016-07-02 10:36:24+00",10.9,12.9,,68.7,-279,405,31,1013.65,68.6,29.2
"2016-07-02 10:41:24+00",10.5,12.5,,68.4,-275,379,44,1013.77,68.5,37
"2016-07-02 10:46:24+00",11.3,12.3,,68.6,-269,414,21,1013.97,68.6,44.1
"2016-07-02 10:51:24+00",9.3,10.3,,68.6,-233,330,16,1013.86,68.8,52.7
"2016-07-02 10:56:24+00",8.7,9.7,,68.4,-236,303,25,1013.98,69,61.7
"2016-07-02 11:01:24+00",10.9,11.9,,68.3,-313,364,22,1014.14,69,70.2
"2016-07-02 11:06:24+00",7.7,9.7,,68.3,-254,229,21,1014.24,69,68.9
"2016-07-02 11:11:24+00",8.8,9.8,,68.4,-264,283,30,1014.18,69.2,88.8
"2016-07-02 11:16:24+00",9.7,10.7,,68.5,-300,303,14,1014.28,69.3,98.2
"2016-07-02 11:21:24+00",8.7,9.7,,68.7,-275,270,14,1014.41,69.5,109.1
"2016-07-02 11:26:24+00",9.9,10.9,,68.8,-310,306,27,1014.51,69.7,129.5
"2016-07-02 11:31:24+00",9.9,10.9,,69,-258,353,21,1014.66,70,159.9
"2016-07-02 11:36:24+00",7.9,8.9,,69.1,-263,248,49,1014.64,70.3,34.6
"2016-07-02 11:41:24+00",9.0,10.0,,69.1,-173,338,44,1014.67,70.2,156.5
"2016-07-02 11:46:24+00",13.4,14.4,,69.1,-221,548,17,1014.53,70.4,174.6
"2016-07-02 11:51:24+00",14.4,15.4,,69,-302,555,10,1014.58,70.6,175
"2016-07-02 11:56:24+00",13.0,14.0,,69,-388,436,54,1014.63,70.3,182
"2016-07-02 12:01:24+00",11.3,13.3,,69.1,-338,382,35,1014.72,70.3,192
"2016-07-02 12:06:24+00",10.4,12.4,,69.1,-325,325,39,1014.75,70.3,202
"2016-07-02 12:11:24+00",10.8,12.8,,68.9,-383,314,34,1014.71,70.4,211.9
"2016-07-02 12:16:24+00",9.0,10.0,,68.7,-322,236,18,1014.77,70.4,218.5
"2016-07-02 12:21:24+00",10.5,12.5,,68.8,-355,316,48,1014.83,70.4,231.9
"2016-07-02 12:26:24+00",14.1,15.1,,68.8,-457,427,22,1014.72,70.3,236.7
"2016-07-02 12:31:24+00",16.1,18.1,,68.9,-464,544,33,1014.69,70.3,251
"2016-07-02 12:36:24+00",12.2,13.2,,68.9,-321,433,21,1014.77,70.3,256.9
"2016-07-02 12:41:24+00",15.4,17.4,,69.2,-408,534,24,1014.79,70.6,265.8
"2016-07-02 12:46:24+00",13.7,16.7,,69.4,-340,504,38,1014.81,70.7,264.8
"2016-07-02 12:51:24+00",13.1,16.1,,69.6,-395,424,65,1014.81,71.1,281.1
"2016-07-02 12:56:24+00",11.0,12.0,,69.5,-306,376,23,1014.79,71.3,285.8
"2016-07-02 13:01:24+00",12.6,15.6,,69.5,-377,411,56,1014.86,71.2,296.2
"2016-07-02 13:06:24+00",12.7,15.7,,69.5,-472,347,46,1014.82,71.1,305.5
"2016-07-02 13:11:24+00",12.1,14.1,,69.7,-394,363,35,1014.82,71.4,296
"2016-07-02 13:16:24+00",15.2,17.2,,69.7,-429,519,22,1014.8,71.5,322.4
"2016-07-02 13:21:24+00",13.1,16.1,,69.8,-369,454,52,1014.87,71.5,330.3
"2016-07-02 13:26:24+00",14.6,15.6,,69.8,-440,484,34,1014.8,71.6,339.2
"2016-07-02 13:31:24+00",11.8,13.8,,70.2,-393,352,79,1014.97,72,347.7
"2016-07-02 13:36:24+00",14.5,16.5,,70,-491,428,43,1015.03,72,355.5
"2016-07-02 13:41:24+00",12.1,16.1,,70.2,-389,382,48,1015.03,72.3,364.3
"2016-07-02 13:46:24+00",14.1,16.1,,70.1,-444,456,57,1015.03,72.2,380.4
"2016-07-02 13:51:24+00",12.7,14.7,,70,-380,415,14,1015.07,71.9,396.1
"2016-07-02 13:56:24+00",14.5,15.5,,70.4,-446,465,35,1014.95,72.2,408.2
"2016-07-02 14:01:24+00",15.8,17.8,,70.5,-485,508,30,1015.18,72.4,446
"2016-07-02 14:06:24+00",12.8,14.8,,70.5,-293,484,18,1015.08,72.8,343.3
"2016-07-02 14:11:24+00",13.9,15.9,,70.8,-445,438,57,1015.08,72.6,226.7
"2016-07-02 14:16:24+00",12.7,14.7,,70.6,-395,403,24,1015,72.1,376.4
"2016-07-02 14:21:24+00",11.9,13.9,,70.8,-367,397,39,1014.98,72.6,418.8
"2016-07-02 14:26:24+00",11.2,13.2,,70.9,-378,324,51,1014.93,72.7,270.9
"2016-07-02 14:31:24+00",12.5,14.5,,71.2,-469,288,41,1014.97,72.8,446.5
"2016-07-02 14:36:24+00",12.4,14.4,,71.3,-386,391,34,1015.05,73.2,500.8
"2016-07-02 14:41:24+00",15.0,17.0,,71.2,-582,316,41,1015.07,72.9,277.7
"2016-07-02 14:46:24+00",14.6,17.6,,71.3,-585,320,41,1015.08,72.9,518.1
"2016-07-02 14:51:24+00",12.4,14.4,,71.7,-478,282,38,1015.17,73.3,533.3
"2016-07-02 14:56:24+00",11.4,14.4,,71.9,-432,248,62,1015.12,73.5,504.1
"2016-07-02 15:01:24+00",12.2,14.2,,72,-494,216,60,1015.03,73.6,501.5
"2016-07-02 15:06:24+00",16.1,17.1,,71.6,-685,253,35,1015.11,73.5,511.4
"2016-07-02 15:11:24+00",15.0,18.0,,72.2,-623,279,50,1015.15,73.6,513.5
"2016-07-02 15:16:24+00",16.1,19.1,,72.1,-611,382,40,1015.11,73.8,520
"2016-07-02 15:21:24+00",12.1,14.1,,72.3,-474,253,47,1015.08,74,532.4
"2016-07-02 15:26:24+00",9.4,12.4,,72.2,-339,243,33,1015.15,74,521.8
"2016-07-02 15:31:24+00",12.2,14.2,,72.4,-409,353,57,1015.11,74,535.4
"2016-07-02 15:36:24+00",10.4,12.4,,72.9,-391,256,79,1015.14,74.5,543.1
"2016-07-02 15:41:24+00",13.8,15.8,,72.9,-418,456,44,1015.13,74.6,551.8
"2016-07-02 15:46:24+00",9.3,10.3,,72.4,-295,281,18,1015.2,74.2,552.5
"2016-07-02 15:51:24+00",11.6,13.6,,72.4,-410,319,19,1015.24,74.2,565.4
"2016-07-02 15:56:24+00",12.2,13.2,,72.7,-524,172,53,1015.16,74.4,570.5
"2016-07-02 16:01:24+00",10.4,12.4,,72.8,-447,127,34,1015.21,74.8,570.4
"2016-07-02 16:06:24+00",11.5,14.5,,73.1,-453,222,42,1015.25,75.3,576.7
"2016-07-02 16:11:24+00",13.5,15.5,,72.9,-596,149,47,1015.23,75.2,576.8
"2016-07-02 16:16:24+00",14.6,16.6,,73.4,-638,155,52,1015.23,75.4,589.6
"2016-07-02 16:21:24+00",14.4,15.4,,73.7,-587,272,34,1015.18,75.7,592.3
"2016-07-02 16:26:24+00",11.9,13.9,,74.1,-432,306,69,1015.14,76,592.9
"2016-07-02 16:31:24+00",11.1,12.1,,74,-388,315,72,1015.15,75.9,590.3
"2016-07-02 16:36:24+00",13.6,15.6,,73.9,-607,122,49,1015.12,76.2,581.8
"2016-07-02 16:41:24+00",13.0,16.0,,74.2,-523,242,70,1015.14,76.3,599.4
"2016-07-02 16:46:24+00",12.9,14.9,,74.3,-480,331,51,1015.07,76.5,601.9
"2016-07-02 16:51:24+00",14.9,15.9,,74,-650,152,28,1015.1,76.5,600.2
"2016-07-02 16:56:24+00",13.3,16.3,,74.1,-556,210,49,1015.08,76.7,597.5
"2016-07-02 17:01:24+00",8.2,10.2,,74.2,-343,113,49,1015.06,76.7,598.6
"2016-07-02 17:06:24+00",11.9,13.9,,74.3,-519,51,38,1015.03,76.9,597.8
"2016-07-02 17:11:24+00",14.4,16.4,,74.3,-635,126,41,1014.91,76.9,590
"2016-07-02 17:16:24+00",14.1,17.1,,75.1,-607,161,56,1014.83,77.2,597.4
"2016-07-02 17:21:24+00",17.0,20.0,,75.1,-676,339,58,1014.89,77.4,579.8
"2016-07-02 17:26:24+00",12.5,14.5,,75.3,-520,194,106,1014.99,77.6,593.4
"2016-07-02 17:31:24+00",13.1,15.1,,75.5,-551,230,89,1015.03,77.6,591
"2016-07-02 17:36:24+00",12.0,14.0,,75.3,-509,137,23,1014.97,77.8,590.3
"2016-07-02 17:41:24+00",17.7,19.7,,75.7,-797,87,61,1014.89,78,588.7
"2016-07-02 17:46:24+00",17.7,19.7,,75.5,-790,55,32,1014.89,77.9,585.1
"2016-07-02 17:51:24+00",15.2,17.2,,75.9,-663,199,48,1014.91,78,581.9
"2016-07-02 17:56:24+00",16.9,18.9,,75.8,-740,181,40,1014.86,78.3,564.2
"2016-07-02 18:01:24+00",18.4,20.4,,75.9,-811,183,74,1014.79,78.2,576.5
"2016-07-02 18:06:24+00",14.8,16.8,,76.2,-665,60,31,1014.98,78.4,568.9
"2016-07-02 18:11:24+00",13.2,15.2,,76.3,-584,100,63,1014.95,78.6,569.8
"2016-07-02 18:16:24+00",16.1,18.1,,76.1,-710,145,35,1014.96,78.5,559.9
"2016-07-02 18:21:24+00",17.2,20.2,,76.3,-752,215,58,1014.92,78.4,502.6
"2016-07-02 18:26:24+00",15.2,18.2,,76.8,-564,399,67,1014.96,78.5,562
"2016-07-02 18:31:24+00",19.2,22.2,,76.3,-830,263,63,1014.99,78.5,449.5
"2016-07-02 18:36:24+00",17.5,20.5,,76.6,-721,321,53,1014.92,78.5,483.1
"2016-07-02 18:41:24+00",16.5,18.5,,76.5,-643,344,41,1014.95,78.5,392.4
"2016-07-02 18:46:24+00",16.9,19.9,,76.7,-742,148,103,1014.91,78.6,463.1
"2016-07-02 18:51:24+00",18.9,20.9,,76.4,-829,228,52,1014.96,78.3,280.4
"2016-07-02 18:56:24+00",19.6,20.6,,76.4,-843,270,65,1015,78.1,413.7
"2016-07-02 19:01:24+00",17.2,19.2,,76.4,-752,200,44,1014.86,78.1,437.9
"2016-07-02 19:06:24+00",14.4,16.4,,76.8,-621,177,46,1014.9,78.5,446.3
"2016-07-02 19:11:24+00",15.5,17.5,,76.9,-599,338,67,1015.09,78.6,501.8
"2016-07-02 19:16:24+00",19.8,20.8,,76.4,-838,334,47,1015.05,78.4,278.2
"2016-07-02 19:21:24+00",14.6,15.6,,76.3,-626,206,41,1015.01,78,286.8
"2016-07-02 19:26:24+00",14.4,17.4,,76.6,-595,249,50,1014.98,78.1,304.2
"2016-07-02 19:31:24+00",13.4,16.4,,77,-468,382,58,1015.02,78.5,337.4
"2016-07-02 19:36:24+00",12.9,14.9,,76.9,-491,337,46,1014.94,78.6,203.1
"2016-07-02 19:41:24+00",13.6,16.6,,76.8,-553,275,89,1014.88,78.3,431.9
"2016-07-02 19:46:24+00",16.7,17.7,,76.7,-726,219,47,1014.82,78.5,409.9
"2016-07-02 19:51:24+00",13.4,16.4,,76.9,-483,350,41,1014.98,78.6,229.3
"2016-07-02 19:56:24+00",13.5,15.5,,77,-399,446,39,1014.99,78.6,445.9
"2016-07-02 20:01:24+00",13.8,15.8,,77.1,-437,442,61,1015.18,78.8,427.2
"2016-07-02 20:06:24+00",9.5,11.5,,77,-214,351,20,1015.21,79.1,350.4
"2016-07-02 20:11:24+00",8.0,9.0,,77.1,-236,246,49,1015.23,79.4,383
"2016-07-02 20:16:24+00",14.3,17.3,,77.5,-316,549,38,1015.31,79.9,406
"2016-07-02 20:21:24+00",14.0,16.0,,77.1,-492,395,39,1015.21,79.6,302.8
"2016-07-02 20:26:24+00",16.6,20.6,,77,-691,279,70,1015.09,79.1,255.1
"2016-07-02 20:31:24+00",16.9,19.9,,76.7,-545,528,42,1015.27,78.6,327.3
"2016-07-02 20:36:24+00",9.9,12.9,,77,-330,298,25,1015.22,78.9,58.6
"2016-07-02 20:41:24+00",6.7,7.7,,77,-128,255,9,1015.25,79.3,57.9
"2016-07-02 20:46:24+00",12.2,13.2,,77.2,-493,236,27,1015.4,79.7,49.1
"2016-07-02 20:51:24+00",11.5,12.5,,77.1,-397,327,36,1015.59,79.3,44.8
"2016-07-02 20:56:24+00",10.5,13.5,,76.9,-447,132,13,1015.58,79,62.2
"2016-07-02 21:01:24+00",13.0,14.0,,77.1,-472,340,30,1015.37,79.1,101.6
"2016-07-02 21:06:24+00",14.2,16.2,,77.2,-562,292,37,1015.42,78.8,270
"2016-07-02 21:11:24+00",12.9,14.9,,77.3,-497,287,66,1015.37,78.9,146.3
"2016-07-02 21:16:24+00",15.5,18.5,,77,-568,410,46,1015.36,78.5,152.2
"2016-07-02 21:21:24+00",14.4,16.4,,76.8,-530,380,48,1015.43,78,79.2
"2016-07-02 21:26:24+00",11.9,12.9,,76.7,-471,243,51,1015.43,77.8,116.6
"2016-07-02 21:31:24+00",12.8,15.8,,76.7,-410,390,43,1015.45,77.6,81.7
"2016-07-02 21:36:24+00",12.7,15.7,,76.6,-459,335,40,1015.52,77.2,65.3
"2016-07-02 21:41:24+00",12.7,15.7,,76.5,-264,485,11,1015.44,77,59.6
"2016-07-02 21:46:24+00",10.4,14.4,,76.5,-310,348,35,1015.58,77,56.4
"2016-07-02 21:51:24+00",13.2,14.2,,76.3,-465,371,39,1015.71,76.8,57.4
"2016-07-02 21:56:24+00",12.1,13.1,,76.3,-475,271,51,1015.74,76.7,69.6
"2016-07-02 22:01:24+00",12.4,14.4,,76.1,-463,325,45,1015.8,76.5,61.1
"2016-07-02 22:06:24+00",14.2,17.2,,76.1,-432,461,45,1015.95,76.4,63.2
"2016-07-02 22:11:24+00",16.3,17.3,,76,-499,532,42,1015.92,76.3,64.4
"2016-07-02 22:16:24+00",13.0,14.0,,76.1,-314,479,35,1016.04,76.4,56.6
"2016-07-02 22:21:24+00",12.2,15.2,,75.9,-322,429,49,1016.2,76.3,44.6
"2016-07-02 22:26:24+00",14.1,16.1,,75.7,-361,520,35,1016.39,76.1,40.8
"2016-07-02 22:31:24+00",13.1,14.1,,75.5,-301,499,40,1016.48,75.8,29.4
"2016-07-02 22:36:24+00",10.5,13.5,,75.4,-263,379,44,1016.51,75.7,21.6
"2016-07-02 22:41:24+00",13.0,15.0,,75.2,-381,444,56,1016.49,75.4,13
"2016-07-02 22:46:24+00",10.7,12.7,,74.8,-325,361,52,1016.54,75,4.2
"2016-07-02 22:51:24+00",13.0,15.0,,75,-354,459,34,1016.64,74.9,0.9
"2016-07-02 22:56:24+00",10.9,11.9,,74.9,-304,375,23,1016.72,74.7,1
"2016-07-02 23:01:24+00",11.2,12.2,,74.8,-315,385,30,1016.76,74.6,0.6
"2016-07-02 23:06:24+00",10.7,12.7,,74.6,-289,367,30,1016.85,74.5,1.6
"2016-07-02 23:11:24+00",9.5,11.5,,74.5,-307,288,23,1016.84,74.4,1.8
"2016-07-02 23:16:24+00",9.5,10.5,,74.2,-321,271,33,1016.86,74.1,1.2
"2016-07-02 23:21:24+00",9.2,11.2,,73.8,-328,256,31,1016.87,73.7,0.5
"2016-07-02 23:26:24+00",10.0,11.0,,73.8,-359,267,32,1017.06,73.4,0
"2016-07-02 23:31:24+00",8.9,10.9,,73.7,-320,233,28,1017.12,73.2,0.2
"2016-07-02 23:36:24+00",7.8,8.8,,73.6,-263,231,21,1016.92,73,0
"2016-07-02 23:41:24+00",7.2,8.2,,73.5,-267,185,22,1017.02,72.9,0.1
"2016-07-02 23:46:24+00",7.5,8.5,,73.4,-259,199,26,1016.87,72.7,0
"2016-07-02 23:51:24+00",7.5,7.5,,73.1,-272,193,16,1016.94,72.5,0
"2016-07-02 23:56:24+00",6.4,7.4,,72.9,-256,129,16,1016.83,72.2,0
